Lid_Strength_Index
4 4 3 4 5 6 7 10 10 6 6 10 14 13 11 8 8 8 10 9 10 11 11 12 11 11 9 7 9 11 11 14 15 13 10 9 11 12 13 15 16 15 16 15
4 4 3 3 4 6 8 11 10 5 6 12 13 11 9 8 8 9 10 10 9 9 11 13 10 9 7 7 8 11 10 14 16 14 12 11 12 11 12 13 15 16 18 15
5 4 4 3 4 5 8 10 10 8 8 11 11 11 11 10 7 8 9 10 9 11 11 11 11 10 7 6 7 5 8 14 14 16 14 12 12 11 11 13 17 16 15 14
5 5 4 3 3 4 8 9 9 9 11 10 10 11 10 10 10 8 9 10 10 11 14 13 13 11 10 8 6 9 11 14 13 13 11 11 11 10 10 13 13 15 14 14
5 5 4 3 3 5 8 11 9 8 9 10 10 11 11 10 9 10 10 11 10 11 13 12 13 12 12 11 10 12 12 14 14 14 11 10 11 10 10 11 12 13 13 13
5 5 4 3 3 5 8 7 8 8 9 10 11 11 9 8 8 8 8 9 11 11 10 9 9 10 10 10 11 12 12 13 15 16 12 11 14 11 11 11 11 12 15 12
5 5 5 4 3 5 6 8 8 10 11 10 10 8 7 8 8 9 7 8 11 8 7 9 10 11 11 10 10 11 13 13 13 15 14 20 12 9 9 11 10 10 10 10
5 5 5 4 3 3 5 5 6 7 11 9 8 8 8 8 9 9 8 7 7 8 10 11 13 13 12 11 9 10 12 15 15 15 17 14 12 10 11 13 12 9 10 9
5 4 4 4 3 3 4 5 4 7 9 10 7 9 8 10 11 9 8 6 7 8 11 12 15 15 14 13 11 9 10 12 13 16 18 19 13 9 8 8 15 9 8 9
4 4 4 4 3 3 4 5 4 6 8 6 7 9 9 8 10 10 10 7 8 9 12 13 14 14 11 13 14 14 14 14 16 16 17 14 9 8 7 16 14 8 8 8
4 4 4 3 3 2 3 6 4 6 9 7 6 5 7 8 9 10 9 9 9 10 12 13 13 14 12 14 12 15 15 16 16 15 17 17 7 9 12 10 8 8 8 7
2 3 3 3 2 1 1 5 3 3 7 8 5 4 3 4 5 8 9 9 9 9 11 11 11 12 12 13 15 11 14 12 14 13 13 8 7 8 7 7 7 7 7 6
1 2 3 2 2 1 1 4 3 4 5 6 7 6 4 3 3 3 8 9 7 7 7 9 10 12 10 14 13 12 11 10 12 11 9 9 7 6 6 7 6 6 5 6
1 1 2 2 1 1 0 3 4 4 5 8 7 4 5 3 5 4 4 5 7 7 8 10 10 11 9 11 10 11 11 9 11 11 9 8 7 6 6 6 5 5 5 5
1 1 2 1 1 1 1 2 3 3 6 9 8 6 3 5 5 5 4 5 9 9 9 9 10 9 10 10 11 12 9 10 11 12 8 8 8 6 5 6 6 5 6 5
1 1 2 1 1 0 3 6 4 3 3 6 10 6 6 6 6 7 7 6 8 8 9 9 9 8 8 11 12 9 8 7 7 7 6 7 6 6 5 6 5 5 5 5
1 1 1 1 1 1 4 6 3 2 3 6 9 9 6 6 7 8 8 8 8 8 9 9 9 8 8 11 12 8 7 7 7 7 6 8 6 7 5 5 4 4 4 4
1 1 1 0 0 2 4 3 2 2 4 4 10 10 9 7 9 9 9 9 9 9 9 9 9 9 10 12 9 8 6 6 6 6 5 6 5 5 5 4 4 5 5 5
1 1 0 1 3 5 5 0 -0 1 3 8 9 11 12 7 9 9 8 8 10 9 9 10 9 10 11 9 9 8 7 8 7 6 5 5 6 6 5 5 5 6 5 5
1 1 3 6 4 -0 0 3 5 5 5 5 9 9 11 9 9 9 9 10 10 13 10 9 11 11 9 8 7 6 6 5 5 7 8 7 7 6 6 6 5 5 5 4
2 4 5 3 -1 2 5 8 9 8 10 8 8 8 10 8 9 9 7 9 10 13 11 11 12 12 9 7 7 5 5 5 5 5 5 6 6 5 6 5 5 4 4 4
2 3 1 2 4 6 9 10 9 9 11 8 9 8 8 9 7 9 8 11 10 13 9 11 14 10 7 7 6 5 5 5 5 4 5 4 4 4 5 5 5 4 3 3
1 3 6 7 7 11 12 13 11 11 8 8 9 9 8 8 7 9 9 12 12 9 12 13 11 9 7 6 6 5 4 4 4 4 4 4 4 3 4 5 4 3 3 3
6 7 11 10 11 10 10 10 9 8 8 8 8 9 9 10 9 9 12 10 10 13 14 14 10 8 7 5 5 5 5 5 5 4 4 4 4 5 4 4 3 3 4 3
7 7 12 10 8 7 7 7 7 7 6 7 8 8 8 9 10 10 10 12 13 12 13 10 8 7 6 6 5 5 5 5 5 4 4 4 4 4 4 3 3 3 3 4
6 7 9 7 9 9 8 7 8 6 6 7 7 9 10 11 10 11 12 12 13 12 9 8 7 6 6 6 5 5 5 5 5 5 4 4 4 4 4 3 3 3 3 3
7 8 6 7 7 8 7 7 7 4 7 10 9 11 12 9 12 12 11 12 10 8 8 8 7 6 6 6 5 5 5 5 5 5 5 6 5 5 4 4 4 3 3 4